Location: Jaite
(41.2884°N, 81.5737°W)
Time: 00:19:23
(UTC+00:00)

Cosmos 1470 - Pass Details

Date: 18 January 2020
Orbit: 520 x 543 km, 82.5° (Epoch: 23 February)

Event Time Altitude Azimuth Distance (km) Brightness Sun altitude
Rises 10:37:18 0° 186° (S) 2,681 6.4 -24.3°
Reaches altitude 10° 10:39:26 10° 186° (S) 1,797 5.4 -23.9°
Enters shadow 10:39:44 12° 186° (S) 1,672 5.3 -23.9°
Exits shadow 10:44:30 47° 10° (N) 730 3.3 -23.0°
Drops below altitude 10° 10:47:24 10° 8° (N) 1,818 5.5 -22.4°
Sets 10:49:34 0° 9° (N) 2,716 6.4 -22.0°
